Location: ?????????
(53.2086°N, 54.0693°E)
Time: 05:54:10
(UTC+00:00)

ATLAS 2AS CENTAUR R/B - Pass Details

Date: 08 December 2019
Orbit: 927 x 1285 km, 63.7° (Epoch: 19 January)

Event Time Altitude Azimuth Distance (km) Brightness Sun altitude
Rises 14:41:03 0° 252° (WSW) 4,241 7.3 -21.8°
Reaches altitude 10° 14:43:58 10° 258° (WSW) 3,285 6.4 -22.2°
Maximum altitude 14:51:48 53° 334° (NNW) 1,542 3.6 -23.4°
Enters shadow 14:55:56 28° 36° (NE) 2,167 3.9 -24.0°
